Location: Newark
(34.6283°N, 36.0776°E)
Time: 10:47:32
(UTC+00:00)

Tiros 1 despin weight - Pass Details

Date: 24 September 2019
Orbit: 594 x 643 km, 48.2° (Epoch: 17 October)

Event Time Altitude Azimuth Distance (km) Brightness Sun altitude
Rises 13:31:34 0° 312° (NW) 2,855 ? 23.3°
Reaches altitude 10° 13:34:04 10° 322° (NW) 1,943 ? 22.8°
Maximum altitude 13:38:07 34° 27° (NNE) 991 ? 22.0°
Drops below altitude 10° 13:42:08 10° 93° (E) 1,921 ? 21.2°
Sets 13:44:35 0° 103° (ESE) 2,818 ? 20.7°
